| time (UTC) | temp C | wind direction | speed KPH | gust KPH | rain 1hr cm | rain 24hr cm | rain mn cm | humidity % | barometer mb |
| 20260510205323 | 15 | 199 | 1.6 | 3.2 | 0.00 | 0.03 | 0.03 | 46 | 1017.9 |
| 20260510204819 | 15 | 0 | 3.2 | 3.2 | 0.00 | 0.03 | 0.03 | 46 | 1018.1 |
| 20260510204316 | 15 | 242 | 0.0 | 0.0 | 0.00 | 0.03 | 0.03 | 45 | 1017.9 |
| 20260510203812 | 15 | 260 | 4.8 | 4.8 | 0.00 | 0.03 | 0.03 | 46 | 1018.0 |
| 20260510203310 | 15 | 308 | 4.8 | 4.8 | 0.00 | 0.03 | 0.03 | 45 | 1018.0 |
| 20260510202810 | 16 | 263 | 0.0 | 1.6 | 0.00 | 0.03 | 0.03 | 46 | 1018.1 |
| 20260510202307 | 16 | 269 | 3.2 | 4.8 | 0.00 | 0.03 | 0.03 | 43 | 1018.0 |
| 20260510201803 | 16 | 252 | 1.6 | 1.6 | 0.00 | 0.03 | 0.03 | 44 | 1018.3 |
| 20260510201300 | 15 | 236 | 9.7 | 11.3 | 0.00 | 0.03 | 0.03 | 44 | 1018.2 |
| 20260510200756 | 16 | 249 | 1.6 | 3.2 | 0.00 | 0.03 | 0.03 | 42 | 1018.3 |
| 20260510200254 | 16 | 262 | 1.6 | 1.6 | 0.00 | 0.03 | 0.03 | 42 | 1018.1 |
| 20260510195750 | 16 | 283 | 3.2 | 3.2 | 0.00 | 0.03 | 0.03 | 43 | 1018.2 |
| 20260510195247 | 16 | 262 | 1.6 | 1.6 | 0.00 | 0.03 | 0.03 | 43 | 1018.0 |
| 20260510194746 | 16 | 33 | 8.0 | 9.7 | 0.00 | 0.03 | 0.03 | 44 | 1018.5 |
| 20260510194244 | 15 | 287 | 3.2 | 4.8 | 0.00 | 0.03 | 0.03 | 45 | 1018.0 |
| 20260510193739 | 15 | 67 | 6.4 | 9.7 | 0.00 | 0.03 | 0.03 | 44 | 1018.2 |
| 20260510193234 | 16 | 235 | 0.0 | 1.6 | 0.00 | 0.03 | 0.03 | 44 | 1018.3 |
| 20260510192730 | 15 | 335 | 4.8 | 8.0 | 0.00 | 0.03 | 0.03 | 44 | 1018.3 |
| 20260510192226 | 15 | 63 | 6.4 | 9.7 | 0.00 | 0.03 | 0.03 | 44 | 1018.4 |
| 20260510191722 | 15 | 22 | 6.4 | 9.7 | 0.00 | 0.03 | 0.03 | 42 | 1018.0 |
| 20260510191218 | 15 | 14 | 4.8 | 8.0 | 0.00 | 0.03 | 0.03 | 45 | 1018.3 |
| 20260510190716 | 15 | 37 | 8.0 | 9.7 | 0.00 | 0.03 | 0.03 | 45 | 1018.4 |
| 20260510190213 | 15 | 321 | 4.8 | 4.8 | 0.00 | 0.03 | 0.03 | 43 | 1017.9 |
| 20260510185710 | 15 | 349 | 9.7 | 11.3 | 0.00 | 0.03 | 0.03 | 45 | 1018.0 |
| 20260510185208 | 15 | 319 | 4.8 | 8.0 | 0.00 | 0.03 | 0.03 | 44 | 1018.2 |
| 20260510184704 | 16 | 233 | 0.0 | 1.6 | 0.00 | 0.03 | 0.03 | 44 | 1017.9 |
| 20260510184201 | 15 | 272 | 3.2 | 3.2 | 0.00 | 0.03 | 0.03 | 44 | 1018.1 |
| 20260510183656 | 15 | 260 | 1.6 | 3.2 | 0.00 | 0.03 | 0.03 | 47 | 1018.0 |
| 20260510183150 | 16 | 261 | 1.6 | 1.6 | 0.00 | 0.03 | 0.03 | 48 | 1018.2 |
| 20260510182648 | 15 | 270 | 1.6 | 3.2 | 0.00 | 0.03 | 0.03 | 47 | 1018.1 |
| 20260510182143 | 15 | 272 | 3.2 | 4.8 | 0.00 | 0.03 | 0.03 | 46 | 1018.1 |
| 20260510181641 | 14 | 84 | 8.0 | 11.3 | 0.00 | 0.03 | 0.03 | 46 | 1017.8 |
| 20260510181137 | 14 | 350 | 0.0 | 3.2 | 0.00 | 0.03 | 0.03 | 49 | 1017.8 |
| 20260510180633 | 14 | 273 | 1.6 | 1.6 | 0.00 | 0.03 | 0.03 | 48 | 1017.7 |
| 20260510180131 | 14 | 28 | 4.8 | 8.0 | 0.00 | 0.03 | 0.03 | 51 | 1017.8 |
| 20260510175626 | 14 | 30 | 6.4 | 9.7 | 0.00 | 0.03 | 0.03 | 52 | 1017.6 |
| 20260510175122 | 14 | 118 | 3.2 | 4.8 | 0.00 | 0.03 | 0.03 | 51 | 1017.5 |
| 20260510174620 | 14 | 45 | 6.4 | 9.7 | 0.00 | 0.03 | 0.03 | 50 | 1017.9 |
| 20260510174118 | 13 | 358 | 1.6 | 3.2 | 0.00 | 0.03 | 0.03 | 50 | 1017.9 |
| 20260510173613 | 13 | 296 | 3.2 | 3.2 | 0.00 | 0.03 | 0.03 | 52 | 1017.9 |
| 20260510173110 | 13 | 0 | 8.0 | 11.3 | 0.00 | 0.03 | 0.03 | 52 | 1018.1 |
| 20260510172605 | 14 | 292 | 4.8 | 8.0 | 0.00 | 0.03 | 0.03 | 52 | 1018.1 |
| 20260510172102 | 14 | 28 | 4.8 | 8.0 | 0.00 | 0.03 | 0.03 | 55 | 1017.9 |
| 20260510171558 | 15 | 269 | 1.6 | 3.2 | 0.00 | 0.03 | 0.03 | 51 | 1017.9 |
| 20260510171056 | 13 | 358 | 4.8 | 11.3 | 0.00 | 0.03 | 0.03 | 53 | 1018.3 |
| 20260510170552 | 13 | 45 | 1.6 | 3.2 | 0.00 | 0.03 | 0.03 | 56 | 1018.3 |
| 20260510170049 | 13 | 311 | 1.6 | 3.2 | 0.00 | 0.03 | 0.03 | 56 | 1018.2 |
| 20260510165544 | 13 | 77 | 11.3 | 14.5 | 0.00 | 0.03 | 0.03 | 54 | 1018.1 |
| 20260510165041 | 13 | 25 | 4.8 | 8.0 | 0.00 | 0.03 | 0.03 | 56 | 1018.2 |
| 20260510164538 | 13 | 45 | 3.2 | 3.2 | 0.00 | 0.03 | 0.03 | 55 | 1018.4 |
| 20260510164035 | 13 | 66 | 1.6 | 8.0 | 0.00 | 0.03 | 0.03 | 55 | 1018.3 |
| 20260510163530 | 13 | 283 | 1.6 | 1.6 | 0.00 | 0.03 | 0.03 | 52 | 1018.1 |
| 20260510163026 | 12 | 313 | 4.8 | 4.8 | 0.00 | 0.03 | 0.03 | 53 | 1018.3 |
| 20260510162522 | 13 | 46 | 11.3 | 12.9 | 0.00 | 0.03 | 0.03 | 53 | 1017.9 |
| 20260510162019 | 13 | 263 | 0.0 | 1.6 | 0.00 | 0.03 | 0.03 | 58 | 1018.2 |
| 20260510161515 | 12 | 323 | 4.8 | 8.0 | 0.00 | 0.03 | 0.03 | 57 | 1017.9 |
| 20260510161011 | 12 | 38 | 1.6 | 4.8 | 0.00 | 0.03 | 0.03 | 58 | 1018.0 |
| 20260510160508 | 12 | 5 | 8.0 | 14.5 | 0.00 | 0.03 | 0.03 | 59 | 1017.9 |
| 20260510160002 | 13 | 89 | 3.2 | 4.8 | 0.00 | 0.03 | 0.03 | 58 | 1017.8 |
| 20260510155459 | 13 | 51 | 11.3 | 12.9 | 0.00 | 0.03 | 0.03 | 57 | 1017.9 |
| 20260510154955 | 12 | 264 | 1.6 | 3.2 | 0.00 | 0.03 | 0.03 | 60 | 1017.9 |
| 20260510154451 | 12 | 55 | 8.0 | 11.3 | 0.00 | 0.03 | 0.03 | 57 | 1017.7 |
| 20260510153950 | 12 | 9 | 11.3 | 12.9 | 0.00 | 0.03 | 0.03 | 59 | 1017.8 |
| 20260510153446 | 12 | 93 | 11.3 | 16.1 | 0.00 | 0.03 | 0.03 | 60 | 1017.7 |
| 20260510152943 | 12 | 39 | 8.0 | 9.7 | 0.00 | 0.03 | 0.03 | 60 | 1017.8 |
| 20260510152441 | 12 | 11 | 8.0 | 9.7 | 0.00 | 0.03 | 0.03 | 59 | 1017.5 |
| 20260510151937 | 12 | 46 | 3.2 | 4.8 | 0.00 | 0.03 | 0.03 | 60 | 1017.4 |
| 20260510151434 | 12 | 20 | 6.4 | 11.3 | 0.00 | 0.03 | 0.03 | 61 | 1017.5 |
| 20260510150930 | 11 | 301 | 3.2 | 3.2 | 0.00 | 0.03 | 0.03 | 60 | 1017.4 |
| 20260510150426 | 11 | 287 | 1.6 | 4.8 | 0.00 | 0.03 | 0.03 | 61 | 1017.3 |
| 20260510145922 | 11 | 15 | 8.0 | 11.3 | 0.00 | 0.03 | 0.03 | 64 | 1017.2 |
| 20260510145419 | 11 | 348 | 6.4 | 9.7 | 0.00 | 0.03 | 0.03 | 64 | 1017.2 |
| 20260510144915 | 11 | 295 | 4.8 | 4.8 | 0.00 | 0.03 | 0.03 | 66 | 1017.3 |
| 20260510144412 | 11 | 76 | 8.0 | 11.3 | 0.00 | 0.03 | 0.03 | 66 | 1016.8 |
| 20260510143907 | 11 | 281 | 4.8 | 4.8 | 0.00 | 0.03 | 0.03 | 67 | 1017.0 |
| 20260510143403 | 11 | 39 | 6.4 | 9.7 | 0.00 | 0.03 | 0.03 | 68 | 1016.9 |
| 20260510142901 | 11 | 28 | 3.2 | 3.2 | 0.00 | 0.03 | 0.03 | 68 | 1016.9 |
| 20260510142357 | 11 | 41 | 9.7 | 11.3 | 0.00 | 0.03 | 0.03 | 67 | 1016.6 |
| 20260510141854 | 11 | 56 | 11.3 | 14.5 | 0.00 | 0.03 | 0.03 | 67 | 1016.8 |
| 20260510141351 | 11 | 346 | 8.0 | 9.7 | 0.00 | 0.03 | 0.03 | 67 | 1016.4 |
| 20260510140848 | 10 | 7 | 14.5 | 17.7 | 0.00 | 0.03 | 0.03 | 68 | 1016.5 |
| 20260510140343 | 11 | 2 | 8.0 | 9.7 | 0.00 | 0.03 | 0.03 | 68 | 1016.3 |
| 20260510135837 | 11 | 297 | 3.2 | 3.2 | 0.00 | 0.03 | 0.03 | 72 | 1016.5 |
| 20260510135333 | 10 | 350 | 3.2 | 4.8 | 0.00 | 0.03 | 0.03 | 73 | 1016.6 |
| 20260510134831 | 10 | 38 | 4.8 | 8.0 | 0.00 | 0.03 | 0.03 | 74 | 1016.2 |
| 20260510134328 | 10 | 346 | 6.4 | 9.7 | 0.00 | 0.03 | 0.03 | 74 | 1016.3 |
| 20260510133824 | 10 | 315 | 9.7 | 14.5 | 0.00 | 0.03 | 0.03 | 74 | 1016.6 |
| 20260510133320 | 10 | 11 | 8.0 | 11.3 | 0.00 | 0.03 | 0.03 | 75 | 1016.6 |
| 20260510132816 | 10 | 16 | 4.8 | 8.0 | 0.00 | 0.03 | 0.03 | 76 | 1016.3 |
| 20260510132314 | 10 | 52 | 8.0 | 9.7 | 0.00 | 0.03 | 0.03 | 77 | 1016.6 |
| 20260510131810 | 9 | 28 | 4.8 | 4.8 | 0.00 | 0.03 | 0.03 | 78 | 1016.3 |
| 20260510131308 | 9 | 6 | 6.4 | 11.3 | 0.00 | 0.03 | 0.03 | 78 | 1016.2 |
| 20260510130805 | 9 | 349 | 6.4 | 8.0 | 0.00 | 0.03 | 0.03 | 78 | 1015.9 |
| 20260510130302 | 9 | 342 | 6.4 | 8.0 | 0.00 | 0.03 | 0.03 | 79 | 1016.1 |
| 20260510125758 | 9 | 328 | 6.4 | 9.7 | 0.00 | 0.03 | 0.03 | 79 | 1016.2 |
| 20260510125254 | 9 | 0 | 8.0 | 11.3 | 0.00 | 0.03 | 0.03 | 80 | 1016.1 |
| 20260510124751 | 9 | 316 | 4.8 | 4.8 | 0.00 | 0.03 | 0.03 | 80 | 1016.0 |
| 20260510124248 | 9 | 3 | 8.0 | 12.9 | 0.00 | 0.03 | 0.03 | 81 | 1015.8 |
| 20260510123743 | 9 | 312 | 3.2 | 3.2 | 0.00 | 0.03 | 0.03 | 81 | 1015.6 |
| 20260510123240 | 9 | 277 | 3.2 | 4.8 | 0.00 | 0.03 | 0.03 | 81 | 1015.6 |
| 20260510122736 | 8 | 359 | 4.8 | 9.7 | 0.00 | 0.03 | 0.03 | 81 | 1015.4 |
| 20260510122232 | 8 | 355 | 8.0 | 11.3 | 0.00 | 0.03 | 0.03 | 81 | 1015.4 |
| 20260510121729 | 8 | 348 | 4.8 | 4.8 | 0.00 | 0.03 | 0.03 | 81 | 1015.4 |
| 20260510121226 | 8 | 355 | 4.8 | 4.8 | 0.00 | 0.03 | 0.03 | 80 | 1015.2 |
| 20260510120724 | 8 | 346 | 3.2 | 4.8 | 0.00 | 0.03 | 0.03 | 80 | 1015.5 |
| 20260510120220 | 8 | 355 | 8.0 | 11.3 | 0.00 | 0.03 | 0.03 | 80 | 1015.2 |
| 20260510115716 | 9 | 291 | 1.6 | 1.6 | 0.00 | 0.03 | 0.03 | 79 | 1015.1 |
| 20260510115214 | 9 | 5 | 4.8 | 4.8 | 0.00 | 0.03 | 0.03 | 79 | 1014.8 |
| 20260510114709 | 9 | 62 | 6.4 | 8.0 | 0.00 | 0.03 | 0.03 | 78 | 1014.8 |
| 20260510114206 | 9 | 313 | 0.0 | 1.6 | 0.00 | 0.03 | 0.03 | 78 | 1014.6 |
| 20260510113701 | 9 | 296 | 3.2 | 3.2 | 0.00 | 0.03 | 0.03 | 77 | 1014.5 |
| 20260510113158 | 9 | 316 | 4.8 | 4.8 | 0.00 | 0.03 | 0.03 | 77 | 1014.3 |
| 20260510112649 | 9 | 22 | 9.7 | 12.9 | 0.00 | 0.03 | 0.03 | 77 | 1014.2 |
| 20260510112146 | 9 | 340 | 6.4 | 8.0 | 0.00 | 0.03 | 0.03 | 77 | 1014.1 |
| 20260510111642 | 9 | 356 | 4.8 | 8.0 | 0.00 | 0.03 | 0.03 | 77 | 1014.1 |
| 20260510111138 | 9 | 278 | 3.2 | 3.2 | 0.00 | 0.03 | 0.03 | 78 | 1014.2 |
| 20260510110633 | 8 | 264 | 0.0 | 1.6 | 0.00 | 0.03 | 0.03 | 78 | 1014.1 |
| 20260510110131 | 8 | 264 | 0.0 | 0.0 | 0.00 | 0.03 | 0.03 | 78 | 1013.6 |
| 20260510105627 | 8 | 264 | 0.0 | 0.0 | 0.00 | 0.03 | 0.03 | 78 | 1013.7 |
| 20260510105126 | 8 | 263 | 0.0 | 0.0 | 0.00 | 0.03 | 0.03 | 79 | 1013.7 |
| 20260510104624 | 8 | 261 | 0.0 | 0.0 | 0.00 | 0.03 | 0.03 | 79 | 1013.3 |
| 20260510104120 | 8 | 262 | 0.0 | 0.0 | 0.00 | 0.03 | 0.03 | 80 | 1013.6 |
| 20260510103617 | 8 | 260 | 0.0 | 0.0 | 0.00 | 0.03 | 0.03 | 80 | 1013.3 |
| 20260510103113 | 8 | 261 | 0.0 | 0.0 | 0.00 | 0.03 | 0.03 | 80 | 1013.2 |
| 20260510102609 | 8 | 259 | 0.0 | 0.0 | 0.00 | 0.03 | 0.03 | 81 | 1013.1 |
| 20260510102105 | 8 | 258 | 0.0 | 0.0 | 0.00 | 0.03 | 0.03 | 81 | 1013.1 |
| 20260510101603 | 8 | 258 | 0.0 | 0.0 | 0.00 | 0.03 | 0.03 | 82 | 1013.0 |
| 20260510101101 | 8 | 258 | 0.0 | 0.0 | 0.00 | 0.03 | 0.03 | 82 | 1012.8 |
| 20260510100556 | 8 | 258 | 0.0 | 0.0 | 0.00 | 0.03 | 0.03 | 82 | 1012.7 |
| 20260510100054 | 8 | 258 | 0.0 | 0.0 | 0.00 | 0.03 | 0.03 | 81 | 1012.5 |
| 20260510095550 | 8 | 258 | 0.0 | 0.0 | 0.00 | 0.03 | 0.03 | 81 | 1012.8 |
| 20260510095049 | 8 | 258 | 0.0 | 0.0 | 0.00 | 0.03 | 0.03 | 81 | 1012.6 |
| 20260510094544 | 7 | 258 | 0.0 | 0.0 | 0.00 | 0.03 | 0.03 | 80 | 1012.5 |
| 20260510094040 | 8 | 258 | 0.0 | 0.0 | 0.00 | 0.03 | 0.03 | 80 | 1012.5 |
| 20260510093536 | 8 | 258 | 0.0 | 0.0 | 0.00 | 0.03 | 0.03 | 80 | 1012.4 |
| 20260510093033 | 8 | 258 | 0.0 | 0.0 | 0.00 | 0.03 | 0.03 | 80 | 1012.5 |
| 20260510092530 | 8 | 257 | 0.0 | 0.0 | 0.00 | 0.03 | 0.03 | 80 | 1012.6 |
| 20260510092029 | 8 | 257 | 0.0 | 0.0 | 0.00 | 0.03 | 0.03 | 79 | 1012.5 |
| 20260510091527 | 8 | 257 | 0.0 | 0.0 | 0.00 | 0.03 | 0.03 | 79 | 1012.5 |
| 20260510091022 | 8 | 257 | 0.0 | 0.0 | 0.00 | 0.03 | 0.03 | 78 | 1012.2 |
| 20260510090520 | 8 | 257 | 0.0 | 0.0 | 0.00 | 0.03 | 0.03 | 77 | 1012.2 |
| 20260510090015 | 8 | 257 | 0.0 | 0.0 | 0.00 | 0.03 | 0.03 | 77 | 1012.3 |
| 20260510085510 | 8 | 257 | 0.0 | 0.0 | 0.00 | 0.03 | 0.03 | 77 | 1012.1 |
| 20260510085006 | 8 | 255 | 0.0 | 0.0 | 0.00 | 0.03 | 0.03 | 78 | 1012.0 |
| 20260510084503 | 8 | 262 | 0.0 | 0.0 | 0.00 | 0.03 | 0.03 | 76 | 1011.9 |
| 20260510084000 | 8 | 265 | 0.0 | 1.6 | 0.00 | 0.03 | 0.03 | 76 | 1011.9 |
| 20260510083456 | 8 | 255 | 0.0 | 1.6 | 0.00 | 0.03 | 0.03 | 77 | 1011.9 |
| 20260510082952 | 9 | 255 | 0.0 | 0.0 | 0.00 | 0.03 | 0.03 | 77 | 1011.9 |
| 20260510082450 | 9 | 255 | 0.0 | 0.0 | 0.00 | 0.03 | 0.03 | 76 | 1011.7 |
| 20260510081949 | 10 | 255 | 0.0 | 0.0 | 0.00 | 0.03 | 0.03 | 74 | 1011.7 |
| 20260510081445 | 10 | 259 | 0.0 | 1.6 | 0.00 | 0.03 | 0.03 | 75 | 1011.6 |
| 20260510080941 | 10 | 268 | 0.0 | 1.6 | 0.00 | 0.03 | 0.03 | 74 | 1011.6 |
| 20260510080440 | 10 | 253 | 1.6 | 1.6 | 0.00 | 0.03 | 0.03 | 75 | 1011.5 |
| 20260510075937 | 10 | 304 | 1.6 | 3.2 | 0.00 | 0.03 | 0.03 | 75 | 1011.3 |
| 20260510075435 | 10 | 274 | 0.0 | 0.0 | 0.00 | 0.03 | 0.03 | 75 | 1011.4 |
| 20260510074931 | 10 | 354 | 3.2 | 3.2 | 0.00 | 0.03 | 0.03 | 76 | 1011.2 |
| 20260510074429 | 10 | 289 | 3.2 | 3.2 | 0.00 | 0.03 | 0.03 | 78 | 1011.5 |
| 20260510073925 | 10 | 280 | 1.6 | 1.6 | 0.00 | 0.03 | 0.03 | 80 | 1011.3 |
| 20260510073420 | 10 | 272 | 0.0 | 0.0 | 0.00 | 0.03 | 0.03 | 80 | 1011.0 |
| 20260510072917 | 11 | 16 | 6.4 | 8.0 | 0.00 | 0.03 | 0.03 | 81 | 1011.3 |
| 20260510072414 | 11 | 350 | 4.8 | 4.8 | 0.00 | 0.03 | 0.03 | 81 | 1010.9 |
| 20260510071909 | 11 | 314 | 6.4 | 8.0 | 0.00 | 0.03 | 0.03 | 82 | 1010.9 |
| 20260510071406 | 11 | 335 | 17.7 | 22.5 | 0.00 | 0.03 | 0.03 | 83 | 1011.0 |
| 20260510070905 | 11 | 357 | 4.8 | 11.3 | 0.00 | 0.03 | 0.03 | 84 | 1010.9 |
| 20260510070401 | 12 | 336 | 11.3 | 14.5 | 0.00 | 0.03 | 0.03 | 83 | 1010.6 |
| 20260510065856 | 12 | 266 | 1.6 | 3.2 | 0.00 | 0.03 | 0.03 | 84 | 1010.5 |
| 20260510065353 | 12 | 303 | 3.2 | 3.2 | 0.00 | 0.03 | 0.03 | 83 | 1010.7 |
| 20260510064850 | 12 | 347 | 3.2 | 9.7 | 0.00 | 0.03 | 0.03 | 82 | 1010.6 |
| 20260510064348 | 12 | 261 | 3.2 | 3.2 | 0.00 | 0.03 | 0.03 | 82 | 1010.2 |
| 20260510063843 | 12 | 278 | 3.2 | 4.8 | 0.00 | 0.03 | 0.03 | 82 | 1010.4 |
| 20260510063340 | 13 | 259 | 1.6 | 1.6 | 0.00 | 0.03 | 0.03 | 83 | 1010.4 |
| 20260510062837 | 13 | 255 | 3.2 | 3.2 | 0.00 | 0.03 | 0.03 | 82 | 1010.1 |
| 20260510062332 | 13 | 263 | 3.2 | 3.2 | 0.00 | 0.03 | 0.03 | 82 | 1010.3 |
| 20260510061828 | 13 | 277 | 3.2 | 3.2 | 0.00 | 0.03 | 0.03 | 83 | 1010.2 |
| 20260510061325 | 13 | 259 | 0.0 | 1.6 | 0.00 | 0.03 | 0.03 | 84 | 1010.0 |
| 20260510060821 | 13 | 264 | 3.2 | 8.0 | 0.00 | 0.03 | 0.03 | 84 | 1010.1 |
| 20260510060318 | 13 | 250 | 1.6 | 3.2 | 0.00 | 0.03 | 0.03 | 84 | 1010.1 |
| 20260510055815 | 13 | 244 | 1.6 | 1.6 | 0.00 | 0.03 | 0.03 | 83 | 1009.9 |
| 20260510055314 | 13 | 253 | 4.8 | 4.8 | 0.00 | 0.03 | 0.03 | 85 | 1009.6 |
| 20260510054813 | 13 | 252 | 0.0 | 0.0 | 0.00 | 0.03 | 0.03 | 86 | 1009.9 |
| 20260510054309 | 13 | 255 | 0.0 | 0.0 | 0.00 | 0.03 | 0.03 | 87 | 1009.6 |
| 20260510053809 | 12 | 252 | 0.0 | 0.0 | 0.00 | 0.03 | 0.03 | 88 | 1009.6 |
| 20260510053300 | 12 | 253 | 0.0 | 0.0 | 0.00 | 0.03 | 0.03 | 89 | 1009.6 |
| 20260510052756 | 12 | 255 | 0.0 | 0.0 | 0.00 | 0.03 | 0.03 | 90 | 1009.6 |
| 20260510052252 | 12 | 243 | 0.0 | 0.0 | 0.00 | 0.03 | 0.03 | 90 | 1009.4 |
| 20260510051748 | 12 | 255 | 0.0 | 0.0 | 0.18 | 0.03 | 0.03 | 91 | 1009.2 |
| 20260510051245 | 12 | 251 | 0.0 | 0.0 | 0.18 | 0.03 | 0.03 | 91 | 1009.2 |
| 20260510050742 | 12 | 239 | 0.0 | 0.0 | 0.00 | 0.00 | 0.00 | 91 | 1009.2 |
| 20260510050239 | 12 | 242 | 0.0 | 0.0 | 0.00 | 0.00 | 0.00 | 91 | 1009.1 |
| 20260510045736 | 12 | 242 | 0.0 | 0.0 | 0.00 | 0.00 | 0.00 | 91 | 1009.2 |
| 20260510045232 | 12 | 241 | 0.0 | 0.0 | 0.00 | 0.00 | 0.00 | 91 | 1009.2 |
| 20260510044729 | 12 | 245 | 0.0 | 0.0 | 0.00 | 0.00 | 0.00 | 91 | 1009.0 |
| 20260510044227 | 12 | 262 | 0.0 | 0.0 | 0.00 | 0.00 | 0.00 | 91 | 1009.2 |
| 20260510043721 | 12 | 228 | 0.0 | 0.0 | 0.00 | 0.00 | 0.00 | 91 | 1008.9 |
| 20260510043219 | 12 | 221 | 3.2 | 8.0 | 0.00 | 0.00 | 0.00 | 92 | 1009.0 |
| 20260510042716 | 12 | 235 | 0.0 | 0.0 | 0.00 | 0.00 | 0.00 | 92 | 1008.9 |
| 20260510042212 | 12 | 217 | 1.6 | 8.0 | 0.00 | 0.00 | 0.00 | 94 | 1009.0 |
| 20260510041709 | 12 | 214 | 3.2 | 8.0 | 0.00 | 0.00 | 0.00 | 95 | 1009.2 |
| 20260510041206 | 12 | 248 | 6.4 | 11.3 | 0.00 | 0.00 | 0.00 | 96 | 1009.2 |
| 20260510040703 | 12 | 250 | 0.0 | 0.0 | 0.00 | 0.00 | 0.00 | 96 | 1009.4 |
| 20260510040200 | 12 | 233 | 0.0 | 0.0 | 0.00 | 0.00 | 0.00 | 96 | 1009.0 |
| 20260510035655 | 11 | 233 | 0.0 | 0.0 | 0.13 | 1.70 | 1.70 | 96 | 1008.5 |
| 20260510035151 | 11 | 214 | 0.0 | 0.0 | 0.13 | 1.70 | 1.70 | 96 | 1008.7 |
| 20260510034647 | 11 | 235 | 0.0 | 0.0 | 0.18 | 1.68 | 1.68 | 96 | 1008.7 |
| 20260510034145 | 11 | 235 | 0.0 | 0.0 | 0.18 | 1.68 | 1.68 | 96 | 1008.6 |
| 20260510033641 | 12 | 236 | 0.0 | 0.0 | 0.00 | 1.65 | 1.65 | 95 | 1008.7 |
| 20260510033139 | 12 | 235 | 0.0 | 0.0 | 0.00 | 1.65 | 1.65 | 95 | 1008.6 |
| 20260510032635 | 11 | 234 | 0.0 | 0.0 | 0.00 | 1.65 | 1.65 | 95 | 1008.4 |
| 20260510032130 | 12 | 235 | 0.0 | 0.0 | 0.00 | 1.65 | 1.65 | 95 | 1008.5 |
| 20260510031625 | 12 | 235 | 0.0 | 0.0 | 0.00 | 1.65 | 1.65 | 95 | 1008.7 |
| 20260510031122 | 12 | 235 | 0.0 | 0.0 | 0.00 | 1.65 | 1.65 | 95 | 1008.7 |
| 20260510030617 | 12 | 234 | 0.0 | 0.0 | 0.00 | 1.65 | 1.65 | 95 | 1008.5 |
| 20260510030115 | 12 | 234 | 0.0 | 0.0 | 0.00 | 1.65 | 1.65 | 95 | 1008.8 |
| 20260510025612 | 12 | 234 | 0.0 | 0.0 | 0.00 | 1.65 | 1.65 | 95 | 1008.9 |
| 20260510025109 | 12 | 230 | 0.0 | 0.0 | 0.00 | 1.65 | 1.65 | 95 | 1008.8 |
| 20260510024606 | 12 | 254 | 0.0 | 0.0 | 0.00 | 1.65 | 1.65 | 95 | 1008.9 |
| 20260510024102 | 12 | 258 | 0.0 | 0.0 | 0.00 | 1.65 | 1.65 | 95 | 1008.8 |
| 20260510023558 | 12 | 246 | 0.0 | 0.0 | 0.00 | 1.65 | 1.65 | 94 | 1008.8 |
| 20260510023056 | 12 | 246 | 0.0 | 0.0 | 0.00 | 1.65 | 1.65 | 94 | 1008.6 |
| 20260510022555 | 12 | 246 | 0.0 | 0.0 | 0.00 | 1.65 | 1.65 | 94 | 1008.5 |
| 20260510022050 | 12 | 246 | 0.0 | 0.0 | 0.00 | 1.65 | 1.65 | 94 | 1008.4 |
| 20260510021546 | 12 | 246 | 0.0 | 0.0 | 0.00 | 1.65 | 1.65 | 94 | 1008.1 |
| 20260510021044 | 12 | 246 | 0.0 | 0.0 | 0.00 | 1.65 | 1.65 | 94 | 1008.3 |
| 20260510020538 | 12 | 246 | 0.0 | 0.0 | 0.00 | 1.65 | 1.65 | 94 | 1008.3 |
| 20260510020034 | 12 | 246 | 0.0 | 0.0 | 0.00 | 1.65 | 1.65 | 94 | 1007.9 |
| 20260510015530 | 12 | 246 | 0.0 | 0.0 | 0.30 | 1.65 | 1.65 | 94 | 1008.4 |
| 20260510015026 | 12 | 250 | 0.0 | 0.0 | 0.43 | 1.65 | 1.65 | 94 | 1008.4 |
| 20260510014523 | 12 | 246 | 0.0 | 0.0 | 0.13 | 1.60 | 1.60 | 94 | 1008.1 |
| 20260510014020 | 12 | 239 | 0.0 | 0.0 | 0.00 | 1.57 | 1.57 | 94 | 1007.4 |
| 20260510013514 | 12 | 238 | 0.0 | 0.0 | 0.00 | 1.57 | 1.57 | 94 | 1007.6 |
| 20260510013010 | 12 | 238 | 0.0 | 0.0 | 0.00 | 1.57 | 1.57 | 93 | 1007.8 |
| 20260510012505 | 12 | 238 | 0.0 | 0.0 | 0.00 | 1.57 | 1.57 | 93 | 1007.5 |
| 20260510012000 | 12 | 238 | 0.0 | 0.0 | 0.00 | 1.57 | 1.57 | 93 | 1007.7 |
| 20260510011455 | 12 | 232 | 0.0 | 0.0 | 0.00 | 1.57 | 1.57 | 93 | 1007.6 |
| 20260510010951 | 12 | 247 | 0.0 | 0.0 | 0.00 | 1.57 | 1.57 | 93 | 1007.4 |
| 20260510010449 | 12 | 247 | 0.0 | 0.0 | 0.00 | 1.57 | 1.57 | 93 | 1007.4 |
| 20260510005946 | 12 | 247 | 0.0 | 0.0 | 0.00 | 1.57 | 1.57 | 93 | 1007.5 |
| 20260510005441 | 12 | 247 | 0.0 | 0.0 | 0.00 | 1.57 | 1.57 | 93 | 1007.3 |
| 20260510004939 | 12 | 247 | 0.0 | 0.0 | 0.00 | 1.57 | 1.57 | 92 | 1007.3 |
| 20260510004436 | 12 | 248 | 0.0 | 0.0 | 0.00 | 1.57 | 1.57 | 92 | 1007.3 |
| 20260510003934 | 12 | 248 | 0.0 | 0.0 | 0.00 | 1.57 | 1.57 | 92 | 1007.3 |
| 20260510003431 | 12 | 248 | 0.0 | 0.0 | 0.00 | 1.57 | 1.57 | 92 | 1007.4 |
| 20260510002930 | 13 | 249 | 0.0 | 0.0 | 0.00 | 1.57 | 1.57 | 91 | 1007.3 |
| 20260510002427 | 13 | 249 | 0.0 | 0.0 | 0.00 | 1.57 | 1.57 | 91 | 1007.3 |
| 20260510001924 | 13 | 246 | 0.0 | 0.0 | 0.00 | 1.57 | 1.57 | 91 | 1007.1 |
| 20260510001421 | 13 | 240 | 0.0 | 0.0 | 0.48 | 1.57 | 1.57 | 91 | 1007.3 |
| 20260510000919 | 13 | 271 | 0.0 | 0.0 | 0.79 | 1.57 | 1.57 | 90 | 1007.4 |
| 20260510000415 | 13 | 286 | 0.0 | 0.0 | 0.79 | 1.52 | 1.52 | 89 | 1007.4 |
| 20260509235911 | 13 | 254 | 0.0 | 0.0 | 0.48 | 1.47 | 1.47 | 88 | 1007.6 |
| 20260509235409 | 13 | 256 | 0.0 | 0.0 | 0.18 | 1.40 | 1.40 | 88 | 1007.9 |
| 20260509234904 | 13 | 272 | 0.0 | 0.0 | 0.18 | 1.40 | 1.40 | 87 | 1007.3 |
| 20260509234402 | 13 | 273 | 0.0 | 0.0 | 0.00 | 1.37 | 1.37 | 86 | 1007.4 |
| 20260509233859 | 14 | 273 | 6.4 | 9.7 | 0.30 | 1.37 | 1.37 | 84 | 1007.3 |
| 20260509233357 | 15 | 266 | 6.4 | 12.9 | 0.30 | 1.37 | 1.37 | 80 | 1006.9 |
| 20260509232852 | 18 | 347 | 11.3 | 22.5 | 0.00 | 1.32 | 1.32 | 71 | 1006.7 |
| 20260509232351 | 18 | 237 | 0.0 | 0.0 | 0.00 | 1.32 | 1.32 | 68 | 1006.0 |
| 20260509231847 | 18 | 233 | 3.2 | 3.2 | 0.00 | 1.32 | 1.32 | 68 | 1005.7 |
| 20260509231343 | 19 | 252 | 1.6 | 1.6 | 0.00 | 1.32 | 1.32 | 67 | 1005.8 |
| 20260509230841 | 20 | 230 | 1.6 | 3.2 | 0.00 | 1.32 | 1.32 | 62 | 1005.6 |
| 20260509230338 | 20 | 254 | 4.8 | 4.8 | 0.00 | 1.32 | 1.32 | 61 | 1005.6 |
| 20260509225833 | 20 | 221 | 4.8 | 8.0 | 0.00 | 1.32 | 1.32 | 60 | 1005.8 |
| 20260509225330 | 20 | 224 | 6.4 | 9.7 | 0.00 | 1.32 | 1.32 | 59 | 1005.6 |
| 20260509224826 | 20 | 175 | 8.0 | 11.3 | 0.00 | 1.32 | 1.32 | 59 | 1005.3 |
| 20260509224322 | 20 | 179 | 6.4 | 8.0 | 0.00 | 1.32 | 1.32 | 60 | 1005.6 |
| 20260509223819 | 20 | 249 | 12.9 | 17.7 | 0.00 | 1.32 | 1.32 | 60 | 1005.3 |
| 20260509223316 | 20 | 227 | 12.9 | 14.5 | 0.00 | 1.32 | 1.32 | 59 | 1005.5 |
| 20260509222813 | 20 | 202 | 0.0 | 1.6 | 0.00 | 1.32 | 1.32 | 59 | 1005.6 |
| 20260509222308 | 21 | 253 | 4.8 | 4.8 | 0.00 | 1.32 | 1.32 | 58 | 1005.3 |
| 20260509221804 | 21 | 215 | 3.2 | 4.8 | 0.00 | 1.32 | 1.32 | 58 | 1005.7 |
| 20260509221302 | 20 | 227 | 4.8 | 8.0 | 0.00 | 1.32 | 1.32 | 59 | 1005.2 |
| 20260509220756 | 21 | 226 | 11.3 | 17.7 | 0.00 | 1.32 | 1.32 | 55 | 1005.6 |
| 20260509220253 | 21 | 233 | 4.8 | 4.8 | 0.00 | 1.32 | 1.32 | 58 | 1005.3 |
| 20260509215748 | 21 | 237 | 4.8 | 4.8 | 0.00 | 1.32 | 1.32 | 57 | 1004.9 |
| 20260509215245 | 21 | 245 | 1.6 | 3.2 | 0.00 | 1.32 | 1.32 | 58 | 1005.3 |
| 20260509214742 | 21 | 230 | 4.8 | 9.7 | 0.00 | 1.32 | 1.32 | 58 | 1005.1 |
| 20260509214239 | 21 | 196 | 4.8 | 9.7 | 0.00 | 1.32 | 1.32 | 56 | 1005.2 |
| 20260509213736 | 21 | 225 | 1.6 | 3.2 | 0.00 | 1.32 | 1.32 | 55 | 1005.3 |
| 20260509213232 | 21 | 228 | 1.6 | 1.6 | 0.00 | 1.32 | 1.32 | 57 | 1005.3 |
| 20260509212730 | 21 | 227 | 4.8 | 8.0 | 0.00 | 1.32 | 1.32 | 56 | 1005.3 |
| 20260509212227 | 21 | 214 | 19.3 | 27.4 | 0.00 | 1.32 | 1.32 | 57 | 1005.3 |
| 20260509211722 | 21 | 207 | 16.1 | 25.7 | 0.00 | 1.32 | 1.32 | 57 | 1005.5 |
| 20260509211219 | 21 | 217 | 4.8 | 8.0 | 0.00 | 1.32 | 1.32 | 56 | 1005.3 |
| 20260509210715 | 21 | 226 | 1.6 | 4.8 | 0.00 | 1.32 | 1.32 | 56 | 1005.2 |
| 20260509210213 | 21 | 221 | 8.0 | 11.3 | 0.00 | 1.32 | 1.32 | 56 | 1005.2 |
| 20260509205713 | 21 | 229 | 6.4 | 8.0 | 0.00 | 1.32 | 1.32 | 57 | 1005.6 |